OK2ZAW-23 Weather Reports


time (UTC)temp
F
wind
direction
speed
knots
gust
knots
rain 1hr
in
rain 24hr
in
rain mn
in
humidity
%
barometer
mb
20260507185659 56 0 0.0 0.0 0.00 0.00 0.00 60 1011.0
20260507185145 57 0 0.0 0.0 0.00 0.00 0.00 59 1011.0
20260507183604 57 0 0.0 0.0 0.00 0.00 0.00 55 1010.7
20260507183051 58 0 0.0 0.0 0.00 0.00 0.00 54 1010.6
20260507181510 60 0 0.0 0.0 0.00 0.00 0.00 48 1010.4
20260507180956 61 0 0.0 0.0 0.00 0.00 0.00 46 1010.3
20260507180442 62 0 0.0 0.0 0.00 0.00 0.00 44 1010.1
20260507175928 63 0 0.0 0.0 0.00 0.00 0.00 42 1010.0
20260507175414 65 0 0.0 0.0 0.00 0.00 0.00 40 1010.0
20260507173832 65 0 0.0 0.0 0.00 0.00 0.00 40 1009.9
20260507172804 70 0 0.0 0.0 0.00 0.00 0.00 35 1009.8
20260507171736 70 0 0.0 0.0 0.00 0.00 0.00 34 1009.7
20260507170153 71 0 0.0 0.0 0.00 0.00 0.00 35 1009.7
20260507165638 69 0 0.0 0.0 0.00 0.00 0.00 37 1009.6
20260507165124 67 0 0.0 0.0 0.00 0.00 0.00 39 1009.6
20260507164610 65 0 0.0 0.0 0.00 0.00 0.00 42 1009.7
20260507163542 66 0 0.0 0.0 0.00 0.00 0.00 41 1009.6
20260507163028 66 0 0.0 0.0 0.00 0.00 0.00 41 1009.5
20260507162000 68 0 0.0 0.0 0.00 0.00 0.00 38 1009.6
20260507161446 69 0 0.0 0.0 0.00 0.00 0.00 37 1009.6
20260507155903 71 0 0.0 0.0 0.00 0.00 0.00 38 1009.5
20260507153251 68 0 0.0 0.0 0.00 0.00 0.00 41 1009.4
20260507151155 64 0 0.0 0.0 0.00 0.00 0.00 45 1009.6
20260507150641 65 0 0.0 0.0 0.00 0.00 0.00 44 1009.4
20260507145058 71 0 0.0 0.0 0.00 0.00 0.00 37 1009.2
20260507143515 70 0 0.0 0.0 0.00 0.00 0.00 39 1009.2
20260507143001 69 0 0.0 0.0 0.00 0.00 0.00 42 1009.1
20260507141934 66 0 0.0 0.0 0.00 0.00 0.00 44 1009.2
20260507140351 66 0 0.0 0.0 0.00 0.00 0.00 44 1009.4
20260507135323 67 0 0.0 0.0 0.00 0.00 0.00 43 1009.3
20260507133226 67 0 0.0 0.0 0.00 0.00 0.00 42 1009.3
20260507132712 68 0 0.0 0.0 0.00 0.00 0.00 41 1009.4
20260507132158 67 0 0.0 0.0 0.00 0.00 0.00 41 1009.3
20260507131644 67 0 0.0 0.0 0.00 0.00 0.00 41 1009.4
20260507125547 68 0 0.0 0.0 0.00 0.00 0.00 40 1009.4
20260507124005 68 0 0.0 0.0 0.00 0.00 0.00 42 1009.3
20260507123450 68 0 0.0 0.0 0.00 0.00 0.00 41 1009.3
20260507121908 67 0 0.0 0.0 0.00 0.00 0.00 43 1009.4
20260507120326 68 0 0.0 0.0 0.00 0.00 0.00 40 1009.1
20260507114229 67 0 0.0 0.0 0.00 0.00 0.00 43 1009.2
20260507113715 68 0 0.0 0.0 0.00 0.00 0.00 43 1009.4
20260507112647 67 0 0.0 0.0 0.00 0.00 0.00 44 1009.3
20260507111619 67 0 0.0 0.0 0.00 0.00 0.00 45 1009.3
20260507111104 67 0 0.0 0.0 0.00 0.00 0.00 45 1009.4
20260507110036 67 0 0.0 0.0 0.00 0.00 0.00 46 1009.4
20260507105008 66 0 0.0 0.0 0.00 0.00 0.00 46 1009.3
20260507103940 65 0 0.0 0.0 0.00 0.00 0.00 49 1009.4
20260507101844 63 0 0.0 0.0 0.00 0.00 0.00 52 1009.3
20260507101330 63 0 0.0 0.0 0.00 0.00 0.00 53 1009.3
20260507100817 62 0 0.0 0.0 0.00 0.00 0.00 55 1009.2
20260507094721 62 0 0.0 0.0 0.00 0.00 0.00 56 1009.1
20260507091558 62 0 0.0 0.0 0.00 0.00 0.00 58 1009.0
20260507090531 60 0 0.0 0.0 0.00 0.00 0.00 60 1009.0
20260507090017 60 0 0.0 0.0 0.00 0.00 0.00 61 1009.0
20260507085503 60 0 0.0 0.0 0.00 0.00 0.00 61 1008.9
20260507084949 61 0 0.0 0.0 0.00 0.00 0.00 62 1008.9
20260507084436 60 0 0.0 0.0 0.00 0.00 0.00 64 1008.8
20260507083922 59 0 0.0 0.0 0.00 0.00 0.00 64 1008.7
20260507082341 59 0 0.0 0.0 0.00 0.00 0.00 64 1008.7
20260507075733 58 0 0.0 0.0 0.00 0.00 0.00 67 1008.6
20260507075219 58 0 0.0 0.0 0.00 0.00 0.00 69 1008.4
20260507074705 58 0 0.0 0.0 0.00 0.00 0.00 69 1008.5
20260507074152 58 0 0.0 0.0 0.00 0.00 0.00 69 1008.5
20260507073639 58 0 0.0 0.0 0.00 0.00 0.00 68 1008.5
20260507072611 58 0 0.0 0.0 0.00 0.00 0.00 70 1008.3
20260507071544 58 0 0.0 0.0 0.00 0.00 0.00 72 1008.3
20260507070516 58 0 0.0 0.0 0.00 0.00 0.00 72 1008.1
20260507070005 58 0 0.0 0.0 0.00 0.00 0.00 73 1008.1
20260507065451 57 0 0.0 0.0 0.00 0.00 0.00 74 1008.2
20260507064936 57 0 0.0 0.0 0.00 0.00 0.00 75 1008.2
20260507064422 57 0 0.0 0.0 0.00 0.00 0.00 76 1008.2
20260507063355 57 0 0.0 0.0 0.00 0.00 0.00 77 1008.1
20260507062841 57 0 0.0 0.0 0.00 0.00 0.00 78 1008.0
20260507062328 57 0 0.0 0.0 0.00 0.00 0.00 79 1007.9
20260507060233 56 0 0.0 0.0 0.00 0.00 0.00 83 1007.6
20260507055720 56 0 0.0 0.0 0.00 0.00 0.00 86 1007.7
20260507055206 55 0 0.0 0.0 0.00 0.00 0.00 86 1007.7
20260507054140 55 0 0.0 0.0 0.00 0.00 0.00 90 1007.6
20260507053626 55 0 0.0 0.0 0.00 0.00 0.00 91 1007.4
20260507053113 55 0 0.0 0.0 0.00 0.00 0.00 92 1007.4
20260507051019 55 0 0.0 0.0 0.00 0.00 0.00 92 1007.2
20260507044925 55 0 0.0 0.0 0.00 0.00 0.00 92 1006.9
20260507043345 54 0 0.0 0.0 0.00 0.00 0.00 95 1006.8
20260507042831 54 0 0.0 0.0 0.00 0.00 0.00 96 1006.7
20260507041252 53 0 0.0 0.0 0.00 0.00 0.00 98 1006.5
20260507033618 51 0 0.0 0.0 0.00 0.00 0.00 10 1006.0
20260507033105 51 0 0.0 0.0 0.00 0.00 0.00 10 1006.0
20260507032551 51 0 0.0 0.0 0.00 0.00 0.00 10 1006.0
20260507031525 51 0 0.0 0.0 0.00 0.00 0.00 99 1006.0
20260507031012 51 0 0.0 0.0 0.00 0.00 0.00 98 1005.9
20260507030458 51 0 0.0 0.0 0.00 0.00 0.00 98 1005.9
20260507025945 51 0 0.0 0.0 0.00 0.00 0.00 98 1005.9
20260507025432 51 0 0.0 0.0 0.00 0.00 0.00 10 1005.9
20260507024918 51 0 0.0 0.0 0.00 0.00 0.00 98 1005.8
20260507024405 51 0 0.0 0.0 0.00 0.00 0.00 99 1005.8
20260507022825 51 0 0.0 0.0 0.00 0.00 0.00 10 1005.6
20260507022312 51 0 0.0 0.0 0.00 0.00 0.00 10 1005.7
20260507021245 51 0 0.0 0.0 0.00 0.00 0.00 10 1005.7
20260507020219 51 0 0.0 0.0 0.00 0.00 0.00 99 1005.6
20260507015706 51 0 0.0 0.0 0.00 0.00 0.00 99 1005.6
20260507015153 51 0 0.0 0.0 0.00 0.00 0.00 99 1005.4
20260507014639 52 0 0.0 0.0 0.00 0.00 0.00 10 1005.2
20260507014126 52 0 0.0 0.0 0.00 0.00 0.00 10 1005.1
20260507012546 52 0 0.0 0.0 0.00 0.00 0.00 99 1005.0
20260507012032 52 0 0.0 0.0 0.00 0.00 0.00 10 1005.2
20260507011006 52 0 0.0 0.0 0.00 0.00 0.00 10 1005.2
20260507010453 52 0 0.0 0.0 0.00 0.00 0.00 10 1005.2
20260507005939 52 0 0.0 0.0 0.00 0.00 0.00 10 1005.2
20260507005426 52 0 0.0 0.0 0.00 0.00 0.00 10 1005.1
20260507004359 52 0 0.0 0.0 0.00 0.00 0.00 10 1004.9
20260507003846 52 0 0.0 0.0 0.00 0.00 0.00 10 1005.0
20260507003333 52 0 0.0 0.0 0.00 0.00 0.00 10 1004.9
20260507002306 52 0 0.0 0.0 0.00 0.00 0.00 98 1004.9
20260506235700 53 0 0.0 0.0 0.00 0.00 0.00 98 1004.6
20260506234632 53 0 0.0 0.0 0.00 0.00 0.00 96 1004.5
20260506233052 53 0 0.0 0.0 0.00 0.00 0.00 99 1003.7
20260506232539 53 0 0.0 0.0 0.00 0.00 0.00 99 1003.7
20260506232025 53 0 0.0 0.0 0.00 0.00 0.00 10 1003.5
20260506230959 53 0 0.0 0.0 0.00 0.00 0.00 98 1003.4
20260506230445 53 0 0.0 0.0 0.00 0.00 0.00 10 1003.4
20260506225932 53 0 0.0 0.0 0.00 0.00 0.00 99 1003.5
20260506224905 54 0 0.0 0.0 0.00 0.00 0.00 98 1003.5
20260506224352 54 0 0.0 0.0 0.00 0.00 0.00 97 1003.6
20260506223839 54 0 0.0 0.0 0.00 0.00 0.00 97 1003.2
20260506223325 54 0 0.0 0.0 0.00 0.00 0.00 96 1003.2
20260506222811 54 0 0.0 0.0 0.00 0.00 0.00 93 1003.1
20260506221744 55 0 0.0 0.0 0.00 0.00 0.00 91 1003.1
20260506221231 55 0 0.0 0.0 0.00 0.00 0.00 91 1003.1
20260506215650 57 0 0.0 0.0 0.00 0.00 0.00 88 1003.4
20260506215137 57 0 0.0 0.0 0.00 0.00 0.00 85 1003.2
20260506214623 58 0 0.0 0.0 0.00 0.00 0.00 80 1003.1
20260506212529 59 0 0.0 0.0 0.00 0.00 0.00 66 1002.1
20260506212015 59 0 0.0 0.0 0.00 0.00 0.00 66 1002.1
20260506211502 59 0 0.0 0.0 0.00 0.00 0.00 65 1002.0
20260506210434 59 0 0.0 0.0 0.00 0.00 0.00 65 1001.8
20260506205920 59 0 0.0 0.0 0.00 0.00 0.00 65 1001.8
20260506205407 59 0 0.0 0.0 0.00 0.00 0.00 65 1001.8
20260506203826 59 0 0.0 0.0 0.00 0.00 0.00 65 1001.8
20260506203312 59 0 0.0 0.0 0.00 0.00 0.00 65 1001.8
20260506202758 59 0 0.0 0.0 0.00 0.00 0.00 65 1001.7
20260506202245 59 0 0.0 0.0 0.00 0.00 0.00 65 1001.8
20260506200704 60 0 0.0 0.0 0.00 0.00 0.00 66 1001.8
20260506194609 60 0 0.0 0.0 0.00 0.00 0.00 69 1001.9
20260506194055 61 0 0.0 0.0 0.00 0.00 0.00 64 1001.9
20260506193541 62 0 0.0 0.0 0.00 0.00 0.00 65 1001.9
20260506193027 62 0 0.0 0.0 0.00 0.00 0.00 54 1001.8
20260506192513 62 0 0.0 0.0 0.00 0.00 0.00 54 1001.7
20260506192000 63 0 0.0 0.0 0.00 0.00 0.00 53 1001.6
20260506191446 63 0 0.0 0.0 0.00 0.00 0.00 53 1001.6
20260506190932 63 0 0.0 0.0 0.00 0.00 0.00 52 1001.4
20260506190418 63 0 0.0 0.0 0.00 0.00 0.00 52 1001.4